| time (UTC) | temp C | wind direction | speed KPH | gust KPH | rain 1hr cm | rain 24hr cm | rain mn cm | humidity % | barometer mb |
| 20260504175623 | 21 | 315 | 0.0 | 17.7 | 0.00 | 0.00 | 0.00 | 40 | 1010.7 |
| 20260504174140 | 21 | 281 | 6.4 | 20.9 | 0.00 | 0.00 | 0.00 | 40 | 1010.8 |
| 20260504172628 | 21 | 232 | 6.4 | 14.5 | 0.00 | 0.00 | 0.00 | 40 | 1010.9 |
| 20260504171143 | 21 | 267 | 1.6 | 14.5 | 0.00 | 0.00 | 0.00 | 42 | 1011.2 |
| 20260504141125 | 16 | 195 | 0.0 | 11.3 | 0.00 | 0.00 | 0.00 | 50 | 1013.2 |
| 20260504081122 | 6 | 321 | 0.0 | 0.0 | 0.00 | 0.00 | 0.00 | 75 | 1013.5 |
| 20260504045628 | 7 | 321 | 0.0 | 0.0 | 0.00 | 0.00 | 0.00 | 71 | 1012.8 |
| 20260504044145 | 7 | 321 | 0.0 | 0.0 | 0.00 | 0.00 | 0.00 | 71 | 1012.7 |
| 20260504042635 | 7 | 321 | 0.0 | 0.0 | 0.00 | 0.00 | 0.00 | 70 | 1012.6 |
| 20260504041131 | 7 | 321 | 0.0 | 0.0 | 0.00 | 0.00 | 0.00 | 69 | 1012.5 |
| 20260504035640 | 7 | 321 | 0.0 | 0.0 | 0.00 | 0.00 | 0.00 | 68 | 1012.5 |
| 20260504034122 | 7 | 321 | 0.0 | 0.0 | 0.00 | 0.00 | 0.00 | 67 | 1012.3 |
| 20260504032639 | 8 | 321 | 0.0 | 0.0 | 0.00 | 0.00 | 0.00 | 66 | 1012.4 |
| 20260504031129 | 8 | 321 | 0.0 | 0.0 | 0.00 | 0.00 | 0.00 | 65 | 1012.5 |
| 20260504025629 | 8 | 321 | 0.0 | 0.0 | 0.00 | 0.00 | 0.00 | 63 | 1012.4 |
| 20260504024143 | 8 | 321 | 0.0 | 0.0 | 0.00 | 0.00 | 0.00 | 62 | 1012.4 |
| 20260504022635 | 9 | 321 | 0.0 | 0.0 | 0.00 | 0.00 | 0.00 | 59 | 1012.4 |
| 20260504021134 | 9 | 321 | 0.0 | 0.0 | 0.00 | 0.00 | 0.00 | 59 | 1012.4 |
| 20260504015630 | 10 | 321 | 0.0 | 0.0 | 0.00 | 0.00 | 0.00 | 57 | 1012.5 |
| 20260504014126 | 10 | 321 | 0.0 | 0.0 | 0.00 | 0.00 | 0.00 | 54 | 1012.3 |
| 20260504012640 | 10 | 321 | 0.0 | 0.0 | 0.00 | 0.00 | 0.00 | 51 | 1012.2 |
| 20260504011134 | 11 | 321 | 0.0 | 0.0 | 0.00 | 0.00 | 0.00 | 50 | 1012.0 |
| 20260504005625 | 11 | 321 | 0.0 | 0.0 | 0.00 | 0.00 | 0.00 | 49 | 1011.8 |
| 20260504004141 | 12 | 321 | 0.0 | 0.0 | 0.00 | 0.00 | 0.00 | 47 | 1011.7 |
| 20260504002634 | 12 | 321 | 0.0 | 0.0 | 0.00 | 0.00 | 0.00 | 46 | 1011.5 |
| 20260504001133 | 13 | 321 | 0.0 | 0.0 | 0.00 | 0.00 | 0.00 | 42 | 1011.1 |
| 20260503235634 | 13 | 321 | 0.0 | 0.0 | 0.00 | 0.00 | 0.00 | 42 | 1011.1 |
| 20260503234132 | 14 | 321 | 0.0 | 0.0 | 0.00 | 0.00 | 0.00 | 40 | 1010.8 |
| 20260503232626 | 14 | 321 | 0.0 | 4.8 | 0.00 | 0.00 | 0.00 | 37 | 1010.6 |
| 20260503231124 | 15 | 321 | 0.0 | 12.9 | 0.00 | 0.00 | 0.00 | 37 | 1010.6 |
| 20260503225634 | 15 | 323 | 1.6 | 9.7 | 0.00 | 0.00 | 0.00 | 36 | 1010.4 |
| 20260503224130 | 15 | 324 | 0.0 | 9.7 | 0.00 | 0.00 | 0.00 | 36 | 1010.2 |
| 20260503222622 | 15 | 313 | 4.8 | 12.9 | 0.00 | 0.00 | 0.00 | 33 | 1010.4 |
| 20260503221125 | 15 | 287 | 1.6 | 14.5 | 0.00 | 0.00 | 0.00 | 35 | 1010.4 |
| 20260503215644 | 15 | 287 | 3.2 | 17.7 | 0.00 | 0.00 | 0.00 | 34 | 1010.4 |
| 20260503214134 | 15 | 299 | 3.2 | 14.5 | 0.00 | 0.00 | 0.00 | 33 | 1010.4 |
| 20260503212636 | 15 | 226 | 4.8 | 19.3 | 0.00 | 0.00 | 0.00 | 33 | 1010.3 |
| 20260503211128 | 15 | 42 | 1.6 | 11.3 | 0.00 | 0.00 | 0.00 | 36 | 1010.1 |
| 20260503205626 | 15 | 307 | 1.6 | 14.5 | 0.00 | 0.00 | 0.00 | 34 | 1010.1 |
| 20260503204146 | 15 | 274 | 1.6 | 17.7 | 0.00 | 0.00 | 0.00 | 36 | 1010.3 |
| 20260503202647 | 15 | 128 | 6.4 | 32.2 | 0.00 | 0.00 | 0.00 | 37 | 1010.3 |
| 20260503201144 | 15 | 355 | 9.7 | 22.5 | 0.00 | 0.00 | 0.00 | 35 | 1010.4 |
| 20260503195636 | 14 | 360 | 8.0 | 22.5 | 0.00 | 0.00 | 0.00 | 35 | 1010.5 |
| 20260503194133 | 14 | 265 | 4.8 | 16.1 | 0.00 | 0.00 | 0.00 | 36 | 1010.6 |
| 20260503192627 | 13 | 246 | 3.2 | 16.1 | 0.00 | 0.00 | 0.00 | 40 | 1010.8 |
| 20260503191122 | 13 | 275 | 3.2 | 14.5 | 0.00 | 0.00 | 0.00 | 37 | 1010.8 |
| 20260503185628 | 13 | 284 | 1.6 | 25.7 | 0.00 | 0.00 | 0.00 | 39 | 1011.0 |
| 20260503184132 | 13 | 223 | 3.2 | 16.1 | 0.00 | 0.00 | 0.00 | 41 | 1011.1 |
| 20260503182626 | 13 | 339 | 9.7 | 24.1 | 0.00 | 0.00 | 0.00 | 41 | 1011.3 |
| 20260503181122 | 13 | 328 | 0.0 | 24.1 | 0.00 | 0.00 | 0.00 | 43 | 1011.4 |